Time,TemperatureF,DewpointF,PressureIn,WindDirection,WindDirectionDegrees,WindSpeedMPH,WindSpeedGustMPH,Humidity,HourlyPrecipIn,Conditions,Clouds,dailyrainin,SoftwareType,DateUTC
2013-03-04 00:00:00,33.7,28.2,29.98,South,171,0.0,0.0,80,0.00,,CLR,0.00,VWS V14.01,2013-03-04 05:00:00,
2013-03-04 00:02:00,33.7,27.9,29.98,South,171,0.0,0.0,79,0.00,,CLR,0.00,VWS V14.01,2013-03-04 05:02:00,
2013-03-04 00:07:00,33.7,27.9,29.98,South,171,0.0,0.0,79,0.00,,CLR,0.00,VWS V14.01,2013-03-04 05:07:00,
2013-03-04 00:15:00,33.9,27.8,29.98,South,171,0.0,1.0,78,0.00,,CLR,0.00,VWS V14.01,2013-03-04 05:15:00,
2013-03-04 00:22:00,34.0,27.9,29.99,South,171,0.0,0.0,78,0.00,,CLR,0.00,VWS V14.01,2013-03-04 05:22:00,
2013-03-04 00:30:00,34.2,27.4,29.99,South,171,0.0,1.0,76,0.00,,CLR,0.00,VWS V14.01,2013-03-04 05:30:00,
2013-03-04 00:37:00,34.2,27.1,29.99,South,171,0.0,0.0,75,0.00,,CLR,0.00,VWS V14.01,2013-03-04 05:37:00,
2013-03-04 00:42:00,34.2,27.1,30.00,South,171,0.0,0.0,75,0.00,,CLR,0.00,VWS V14.01,2013-03-04 05:42:00,
2013-03-04 00:45:00,32.1,25.7,30.01,South,171,0.0,0.0,77,0.00,,SCT070,0.00,VWS V14.01,2013-03-04 05:45:00,
2013-03-04 00:52:00,34.1,26.7,30.00,South,171,0.0,0.0,74,0.00,,CLR,0.00,VWS V14.01,2013-03-04 05:52:00,
2013-03-04 00:57:00,34.1,26.7,30.00,South,171,0.0,0.0,74,0.00,,CLR,0.00,VWS V14.01,2013-03-04 05:57:00,
2013-03-04 01:00:00,31.1,25.4,30.01,South,171,0.0,0.0,79,0.00,,SCT070,0.00,VWS V14.01,2013-03-04 06:00:00,
2013-03-04 01:02:00,34.0,26.6,30.00,South,171,0.0,0.0,74,0.00,,CLR,0.00,VWS V14.01,2013-03-04 06:02:00,
2013-03-04 01:12:00,33.7,26.3,30.00,South,171,0.0,1.0,74,0.00,,CLR,0.00,VWS V14.01,2013-03-04 06:12:00,
2013-03-04 01:15:00,30.3,24.9,30.01,South,171,0.0,0.0,80,0.00,,SCT070,0.00,VWS V14.01,2013-03-04 06:15:00,
2013-03-04 01:22:00,33.4,26.3,30.00,South,171,0.0,0.0,75,0.00,,CLR,0.00,VWS V14.01,2013-03-04 06:22:00,
2013-03-04 01:27:00,33.1,26.0,30.00,South,171,0.0,0.0,75,0.00,,CLR,0.00,VWS V14.01,2013-03-04 06:27:00,
2013-03-04 01:30:00,29.8,24.7,30.02,South,171,0.0,0.0,81,0.00,,SCT070,0.00,VWS V14.01,2013-03-04 06:30:00,
2013-03-04 01:32:00,32.9,25.9,30.00,South,171,0.0,0.0,75,0.00,,CLR,0.00,VWS V14.01,2013-03-04 06:32:00,
2013-03-04 01:42:00,32.3,25.9,30.00,South,171,0.0,0.0,77,0.00,,CLR,0.00,VWS V14.01,2013-03-04 06:42:00,
2013-03-04 01:45:00,29.4,24.6,30.02,South,171,0.0,0.0,82,0.00,,SCT070,0.00,VWS V14.01,2013-03-04 06:45:00,
2013-03-04 01:46:00,32.0,25.6,30.01,South,171,0.0,0.0,77,0.00,,CLR,0.00,VWS V14.01,2013-03-04 06:46:00,
2013-03-04 01:56:00,31.3,25.2,30.01,South,171,0.0,0.0,78,0.00,,CLR,0.00,VWS V14.01,2013-03-04 06:56:00,
2013-03-04 02:00:00,29.0,24.5,30.03,South,171,0.0,0.0,83,0.00,,SCT070,0.00,VWS V14.01,2013-03-04 07:00:00,
2013-03-04 02:01:00,31.0,25.3,30.01,South,171,0.0,0.0,79,0.00,,CLR,0.00,VWS V14.01,2013-03-04 07:01:00,
2013-03-04 02:11:00,30.5,25.1,30.01,South,171,0.0,0.0,80,0.00,,CLR,0.00,VWS V14.01,2013-03-04 07:11:00,
2013-03-04 02:15:00,28.8,24.3,30.03,South,171,0.0,0.0,83,0.00,,SCT070,0.00,VWS V14.01,2013-03-04 07:15:00,
2013-03-04 02:16:00,30.2,24.8,30.01,South,171,0.0,0.0,80,0.00,,CLR,0.00,VWS V14.01,2013-03-04 07:16:00,
2013-03-04 02:26:00,29.9,24.8,30.02,South,171,0.0,0.0,81,0.00,,CLR,0.00,VWS V14.01,2013-03-04 07:26:00,
2013-03-04 02:30:00,28.9,24.1,30.03,South,171,0.0,0.0,82,0.00,,SCT070,0.00,VWS V14.01,2013-03-04 07:30:00,
2013-03-04 02:31:00,29.7,24.6,30.02,South,171,0.0,0.0,81,0.00,,CLR,0.00,VWS V14.01,2013-03-04 07:31:00,
2013-03-04 02:36:00,29.6,24.8,30.02,South,171,0.0,0.0,82,0.00,,CLR,0.00,VWS V14.01,2013-03-04 07:36:00,
2013-03-04 02:45:00,29.4,24.6,30.02,South,171,0.0,0.0,82,0.00,,CLR,0.00,VWS V14.01,2013-03-04 07:45:00,
2013-03-04 02:51:00,29.3,24.8,30.02,South,171,0.0,0.0,83,0.00,,CLR,0.00,VWS V14.01,2013-03-04 07:51:00,
2013-03-04 03:00:00,29.0,24.5,30.03,South,171,0.0,0.0,83,0.00,,CLR,0.00,VWS V14.01,2013-03-04 08:00:00,
2013-03-04 03:06:00,28.9,24.4,30.03,South,171,0.0,0.0,83,0.00,,CLR,0.00,VWS V14.01,2013-03-04 08:06:00,
2013-03-04 03:11:00,28.8,24.3,30.03,South,171,0.0,0.0,83,0.00,,CLR,0.00,VWS V14.01,2013-03-04 08:11:00,
2013-03-04 03:15:00,28.3,23.8,30.05,South,171,0.0,0.0,83,0.00,,SCT070,0.00,VWS V14.01,2013-03-04 08:15:00,
2013-03-04 03:21:00,28.8,24.3,30.03,South,171,0.0,0.0,83,0.00,,CLR,0.00,VWS V14.01,2013-03-04 08:21:00,
2013-03-04 03:30:00,28.9,24.1,30.03,South,171,0.0,0.0,82,0.00,,CLR,0.00,VWS V14.01,2013-03-04 08:30:00,
2013-03-04 03:36:00,28.8,24.3,30.04,South,171,0.0,0.0,83,0.00,,CLR,0.00,VWS V14.01,2013-03-04 08:36:00,
2013-03-04 03:41:00,28.8,24.3,30.04,South,171,0.0,0.0,83,0.00,,CLR,0.00,VWS V14.01,2013-03-04 08:41:00,
2013-03-04 03:45:00,27.8,23.6,30.07,South,171,0.0,0.0,84,0.00,,SCT070,0.00,VWS V14.01,2013-03-04 08:45:00,
2013-03-04 03:51:00,28.8,24.0,30.04,South,171,0.0,0.0,82,0.00,,CLR,0.00,VWS V14.01,2013-03-04 08:51:00,
2013-03-04 03:56:00,28.8,24.0,30.04,South,171,0.0,0.0,82,0.00,,CLR,0.00,VWS V14.01,2013-03-04 08:56:00,
2013-03-04 04:00:00,27.8,23.3,30.08,South,171,0.0,0.0,83,0.00,,SCT070,0.00,VWS V14.01,2013-03-04 09:00:00,
2013-03-04 04:06:00,28.6,24.1,30.05,South,171,0.0,0.0,83,0.00,,CLR,0.00,VWS V14.01,2013-03-04 09:06:00,
2013-03-04 04:11:00,28.4,23.9,30.05,South,171,0.0,0.0,83,0.00,,CLR,0.00,VWS V14.01,2013-03-04 09:11:00,
2013-03-04 04:15:00,27.8,23.3,30.09,South,171,0.0,0.0,83,0.00,,SCT070,0.00,VWS V14.01,2013-03-04 09:15:00,
2013-03-04 04:21:00,28.1,23.9,30.05,South,171,0.0,0.0,84,0.00,,CLR,0.00,VWS V14.01,2013-03-04 09:21:00,
2013-03-04 04:26:00,28.0,23.8,30.06,South,171,0.0,0.0,84,0.00,,CLR,0.00,VWS V14.01,2013-03-04 09:26:00,
2013-03-04 04:30:00,27.5,23.3,30.09,South,171,0.0,0.0,84,0.00,,SCT070,0.00,VWS V14.01,2013-03-04 09:30:00,
2013-03-04 04:36:00,27.9,23.7,30.06,South,171,0.0,0.0,84,0.00,,CLR,0.00,VWS V14.01,2013-03-04 09:36:00,
2013-03-04 04:41:00,27.8,23.6,30.07,South,171,0.0,0.0,84,0.00,,CLR,0.00,VWS V14.01,2013-03-04 09:41:00,
2013-03-04 04:45:00,27.4,22.9,30.10,South,171,0.0,0.0,83,0.00,,SCT070,0.00,VWS V14.01,2013-03-04 09:45:00,
2013-03-04 04:51:00,27.8,23.6,30.07,South,171,0.0,0.0,84,0.00,,CLR,0.00,VWS V14.01,2013-03-04 09:51:00,
2013-03-04 04:56:00,27.7,23.5,30.08,South,171,0.0,0.0,84,0.00,,CLR,0.00,VWS V14.01,2013-03-04 09:56:00,
2013-03-04 05:00:00,27.2,22.7,30.10,South,171,0.0,0.0,83,0.00,,SCT070,0.00,VWS V14.01,2013-03-04 10:00:00,
2013-03-04 05:06:00,27.9,23.4,30.08,South,171,0.0,0.0,83,0.00,,CLR,0.00,VWS V14.01,2013-03-04 10:06:00,
2013-03-04 05:15:00,27.8,23.3,30.09,South,171,0.0,0.0,83,0.00,,CLR,0.00,VWS V14.01,2013-03-04 10:15:00,
2013-03-04 05:21:00,27.7,23.2,30.09,South,171,0.0,0.0,83,0.00,,CLR,0.00,VWS V14.01,2013-03-04 10:21:00,
2013-03-04 05:30:00,27.5,23.3,30.09,South,171,0.0,0.0,84,0.00,,CLR,0.00,VWS V14.01,2013-03-04 10:30:00,
2013-03-04 05:35:00,27.5,23.0,30.09,South,171,0.0,0.0,83,0.00,,CLR,0.00,VWS V14.01,2013-03-04 10:35:00,
2013-03-04 05:45:00,27.4,22.9,30.10,South,171,0.0,0.0,83,0.00,,CLR,0.00,VWS V14.01,2013-03-04 10:45:00,
2013-03-04 05:50:00,27.4,22.9,30.10,South,171,0.0,0.0,83,0.00,,CLR,0.00,VWS V14.01,2013-03-04 10:50:00,
2013-03-04 06:00:00,27.2,22.7,30.10,South,171,0.0,0.0,83,0.00,,CLR,0.00,VWS V14.01,2013-03-04 11:00:00,
2013-03-04 06:05:00,27.0,22.8,30.11,South,171,0.0,0.0,84,0.00,,CLR,0.00,VWS V14.01,2013-03-04 11:05:00,
2013-03-04 06:15:00,26.9,23.0,30.11,South,171,0.0,0.0,85,0.00,,CLR,0.00,VWS V14.01,2013-03-04 11:15:00,
2013-03-04 06:20:00,26.9,23.0,30.11,South,171,0.0,0.0,85,0.00,,CLR,0.00,VWS V14.01,2013-03-04 11:20:00,
2013-03-04 06:25:00,26.8,22.6,30.11,South,171,0.0,0.0,84,0.00,,CLR,0.00,VWS V14.01,2013-03-04 11:25:00,
2013-03-04 06:30:00,26.7,22.5,30.10,South,171,0.0,0.0,84,0.00,,CLR,0.00,VWS V14.01,2013-03-04 11:30:00,
2013-03-04 06:40:00,26.9,22.7,30.11,South,171,0.0,0.0,84,0.00,,CLR,0.00,VWS V14.01,2013-03-04 11:40:00,
2013-03-04 06:45:00,26.9,22.7,30.11,South,171,0.0,0.0,84,0.00,,CLR,0.00,VWS V14.01,2013-03-04 11:45:00,
2013-03-04 06:55:00,26.8,22.6,30.11,South,171,0.0,0.0,84,0.00,,CLR,0.00,VWS V14.01,2013-03-04 11:55:00,
2013-03-04 07:00:00,26.7,22.5,30.12,South,171,0.0,0.0,84,0.00,,CLR,0.00,VWS V14.01,2013-03-04 12:00:00,
2013-03-04 07:10:00,26.6,22.7,30.12,South,171,0.0,0.0,85,0.00,,CLR,0.00,VWS V14.01,2013-03-04 12:10:00,
2013-03-04 07:15:00,31.2,24.8,30.14,WSW,240,0.0,2.0,77,0.00,,SCT070,0.00,VWS V14.01,2013-03-04 12:15:00,
2013-03-04 07:20:00,26.5,22.6,30.12,South,171,0.0,0.0,85,0.00,,CLR,0.00,VWS V14.01,2013-03-04 12:20:00,
2013-03-04 07:25:00,26.5,22.6,30.12,South,171,0.0,0.0,85,0.00,,CLR,0.00,VWS V14.01,2013-03-04 12:25:00,
2013-03-04 07:30:00,32.7,25.3,30.14,WSW,240,0.0,2.0,74,0.00,,SCT070,0.00,VWS V14.01,2013-03-04 12:30:00,
2013-03-04 07:35:00,26.7,22.8,30.13,South,171,0.0,0.0,85,0.00,,CLR,0.00,VWS V14.01,2013-03-04 12:35:00,
2013-03-04 07:45:00,27.4,23.2,30.13,South,171,0.0,0.0,84,0.00,,CLR,0.00,VWS V14.01,2013-03-04 12:45:00,
2013-03-04 07:50:00,27.9,23.4,30.13,South,171,0.0,0.0,83,0.00,,CLR,0.00,VWS V14.01,2013-03-04 12:50:00,
2013-03-04 08:00:00,29.2,24.1,30.13,South,171,0.0,1.0,81,0.00,,CLR,0.00,VWS V14.01,2013-03-04 13:00:00,
2013-03-04 08:05:00,29.9,24.5,30.14,South,178,0.0,0.0,80,0.00,,CLR,0.00,VWS V14.01,2013-03-04 13:05:00,
2013-03-04 08:15:00,31.2,24.8,30.14,WSW,240,0.0,2.0,77,0.00,,CLR,0.00,VWS V14.01,2013-03-04 13:15:00,
2013-03-04 08:20:00,31.7,25.0,30.14,WSW,240,0.0,2.0,76,0.00,,CLR,0.00,VWS V14.01,2013-03-04 13:20:00,
2013-03-04 08:30:00,32.7,25.3,30.13,WSW,240,0.0,2.0,74,0.00,,CLR,0.00,VWS V14.01,2013-03-04 13:30:00,
2013-03-04 08:35:00,33.2,25.2,30.14,West,273,0.0,2.0,72,0.00,,CLR,0.00,VWS V14.01,2013-03-04 13:35:00,
2013-03-04 08:45:00,34.4,25.3,30.14,WNW,288,0.0,4.0,69,0.00,,CLR,0.00,VWS V14.01,2013-03-04 13:45:00,
2013-03-04 08:55:00,35.7,24.7,30.14,WNW,290,0.0,2.0,64,0.00,,CLR,0.00,VWS V14.01,2013-03-04 13:55:00,
2013-03-04 09:00:00,36.2,24.5,30.14,WNW,290,0.0,2.0,62,0.00,,CLR,0.00,VWS V14.01,2013-03-04 14:00:00,
2013-03-04 09:05:00,36.8,24.2,30.14,NW,324,1.0,6.0,60,0.00,,CLR,0.00,VWS V14.01,2013-03-04 14:05:00,
2013-03-04 09:10:00,37.3,23.9,30.14,NW,326,0.0,7.0,58,0.00,,CLR,0.00,VWS V14.01,2013-03-04 14:10:00,
2013-03-04 09:15:00,38.0,25.0,30.14,NW,309,1.0,7.0,59,0.00,,CLR,0.00,VWS V14.01,2013-03-04 14:15:00,
2013-03-04 09:24:00,39.0,23.8,30.14,NNW,329,0.0,5.0,54,0.00,,CLR,0.00,VWS V14.01,2013-03-04 14:24:00,
2013-03-04 09:29:00,39.4,24.1,30.14,NW,323,0.0,5.0,54,0.00,,CLR,0.00,VWS V14.01,2013-03-04 14:29:00,
2013-03-04 09:30:00,42.7,24.4,30.14,NW,319,0.0,7.0,48,0.00,,SCT070,0.00,VWS V14.01,2013-03-04 14:30:00,
2013-03-04 09:39:00,40.1,23.4,30.14,WNW,298,0.0,7.0,51,0.00,,CLR,0.00,VWS V14.01,2013-03-04 14:39:00,
2013-03-04 09:44:00,40.2,23.5,30.14,NW,316,0.0,7.0,51,0.00,,CLR,0.00,VWS V14.01,2013-03-04 14:44:00,
2013-03-04 09:45:00,43.3,23.4,30.14,NW,326,6.0,8.0,45,0.00,,SCT070,0.00,VWS V14.01,2013-03-04 14:45:00,
2013-03-04 09:54:00,40.7,24.0,30.15,NW,304,0.0,6.0,51,0.00,,CLR,0.00,VWS V14.01,2013-03-04 14:54:00,
2013-03-04 09:59:00,41.1,24.4,30.14,NNW,342,0.0,6.0,51,0.00,,CLR,0.00,VWS V14.01,2013-03-04 14:59:00,
2013-03-04 10:00:00,44.3,23.8,30.14,NNW,328,5.0,8.0,44,0.00,,SCT070,0.00,VWS V14.01,2013-03-04 15:00:00,
2013-03-04 10:09:00,41.6,23.9,30.15,NW,305,0.0,5.0,49,0.00,,CLR,0.00,VWS V14.01,2013-03-04 15:09:00,
2013-03-04 10:14:00,42.0,23.8,30.15,NW,310,3.0,8.0,48,0.00,,CLR,0.00,VWS V14.01,2013-03-04 15:14:00,
2013-03-04 10:15:00,45.0,23.9,30.13,NNW,328,2.0,12.0,43,0.00,,SCT070,0.00,VWS V14.01,2013-03-04 15:15:00,
2013-03-04 10:24:00,42.5,23.7,30.14,North,360,0.0,7.0,47,0.00,,CLR,0.00,VWS V14.01,2013-03-04 15:24:00,
2013-03-04 10:29:00,42.6,24.3,30.14,NNW,334,1.0,7.0,48,0.00,,CLR,0.00,VWS V14.01,2013-03-04 15:29:00,
2013-03-04 10:30:00,46.4,24.0,30.12,NNW,340,0.0,6.0,41,0.00,,SCT070,0.00,VWS V14.01,2013-03-04 15:30:00,
2013-03-04 10:39:00,43.0,23.6,30.14,NW,320,0.0,6.0,46,0.00,,CLR,0.00,VWS V14.01,2013-03-04 15:39:00,
2013-03-04 10:44:00,43.3,23.4,30.14,NNW,334,4.0,8.0,45,0.00,,CLR,0.00,VWS V14.01,2013-03-04 15:44:00,
2013-03-04 10:45:00,47.1,23.4,30.12,NE,36,0.0,9.0,39,0.00,,SCT070,0.00,VWS V14.01,2013-03-04 15:45:00,
2013-03-04 10:54:00,43.8,23.9,30.14,NW,322,2.0,6.0,45,0.00,,CLR,0.00,VWS V14.01,2013-03-04 15:54:00,
2013-03-04 10:59:00,44.3,23.8,30.14,NW,325,4.0,8.0,44,0.00,,CLR,0.00,VWS V14.01,2013-03-04 15:59:00,
2013-03-04 11:00:00,48.0,24.2,30.11,WNW,296,4.0,8.0,39,0.00,,SCT070,0.00,VWS V14.01,2013-03-04 16:00:00,
2013-03-04 11:09:00,44.7,23.6,30.13,North,350,0.0,12.0,43,0.00,,CLR,0.00,VWS V14.01,2013-03-04 16:09:00,
2013-03-04 11:14:00,45.0,23.9,30.13,North,351,0.0,12.0,43,0.00,,CLR,0.00,VWS V14.01,2013-03-04 16:14:00,
2013-03-04 11:15:00,49.0,24.5,30.10,NW,309,1.0,7.0,38,0.00,,SCT070,0.00,VWS V14.01,2013-03-04 16:15:00,
2013-03-04 11:24:00,45.9,24.7,30.13,NW,313,5.0,6.0,43,0.00,,CLR,0.00,VWS V14.01,2013-03-04 16:24:00,
2013-03-04 11:30:00,46.4,24.0,30.12,NNW,340,0.0,6.0,41,0.00,,CLR,0.00,VWS V14.01,2013-03-04 16:30:00,
2013-03-04 11:39:00,46.7,23.1,30.12,WNW,296,1.0,9.0,39,0.00,,CLR,0.00,VWS V14.01,2013-03-04 16:39:00,
2013-03-04 11:45:00,47.1,23.4,30.12,NE,36,0.0,9.0,39,0.00,,CLR,0.00,VWS V14.01,2013-03-04 16:45:00,
2013-03-04 11:54:00,47.5,23.8,30.11,NW,326,2.0,8.0,39,0.00,,CLR,0.00,VWS V14.01,2013-03-04 16:54:00,
2013-03-04 11:59:00,47.9,23.5,30.11,NW,309,4.0,8.0,38,0.00,,CLR,0.00,VWS V14.01,2013-03-04 16:59:00,
2013-03-04 12:00:00,52.3,26.2,30.08,NW,323,2.0,7.0,36,0.00,,SCT070,0.00,VWS V14.01,2013-03-04 17:00:00,
2013-03-04 12:09:00,48.6,24.2,30.11,West,266,1.0,7.0,38,0.00,,CLR,0.00,VWS V14.01,2013-03-04 17:09:00,
2013-03-04 12:14:00,48.9,23.8,30.11,NW,314,1.0,7.0,37,0.00,,CLR,0.00,VWS V14.01,2013-03-04 17:14:00,
2013-03-04 12:15:00,52.2,25.4,30.08,NNW,344,2.0,5.0,35,0.00,,SCT070,0.00,VWS V14.01,2013-03-04 17:15:00,
2013-03-04 12:24:00,49.9,24.7,30.10,NW,316,1.0,8.0,37,0.00,,CLR,0.00,VWS V14.01,2013-03-04 17:24:00,
2013-03-04 12:29:00,50.3,24.4,30.09,NW,326,4.0,8.0,36,0.00,,CLR,0.00,VWS V14.01,2013-03-04 17:29:00,
2013-03-04 12:30:00,53.0,24.7,30.07,NW,314,0.0,6.0,33,0.00,,SCT070,0.00,VWS V14.01,2013-03-04 17:30:00,
2013-03-04 12:39:00,50.7,23.4,30.08,SW,215,0.0,5.0,34,0.00,,CLR,0.00,VWS V14.01,2013-03-04 17:39:00,
2013-03-04 12:44:00,51.2,23.8,30.09,NW,317,2.0,5.0,34,0.00,,CLR,0.00,VWS V14.01,2013-03-04 17:44:00,
2013-03-04 12:45:00,54.1,25.6,30.06,NW,309,2.0,5.0,33,0.00,,SCT070,0.00,VWS V14.01,2013-03-04 17:45:00,
2013-03-04 12:54:00,51.7,25.6,30.08,ENE,69,0.0,7.0,36,0.00,,CLR,0.00,VWS V14.01,2013-03-04 17:54:00,
2013-03-04 12:59:00,52.1,26.6,30.08,NW,321,1.0,7.0,37,0.00,,CLR,0.00,VWS V14.01,2013-03-04 17:59:00,
2013-03-04 13:00:00,53.5,25.1,30.05,NE,36,0.0,6.0,33,0.00,,SCT070,0.00,VWS V14.01,2013-03-04 18:00:00,
2013-03-04 13:08:00,51.8,25.0,30.08,NE,56,1.0,5.0,35,0.00,,CLR,0.00,VWS V14.01,2013-03-04 18:08:00,
2013-03-04 13:13:00,51.9,26.5,30.08,NNW,344,0.0,5.0,37,0.00,,CLR,0.00,VWS V14.01,2013-03-04 18:13:00,
2013-03-04 13:15:00,53.8,25.4,30.05,East,80,0.0,3.0,33,0.00,,SCT070,0.00,VWS V14.01,2013-03-04 18:15:00,
2013-03-04 13:23:00,52.9,24.6,30.07,ENE,65,2.0,5.0,33,0.00,,CLR,0.00,VWS V14.01,2013-03-04 18:23:00,
2013-03-04 13:30:00,53.0,24.7,30.07,NW,314,0.0,6.0,33,0.00,,CLR,0.00,VWS V14.01,2013-03-04 18:30:00,
2013-03-04 13:33:00,53.1,25.5,30.06,NW,322,0.0,1.0,34,0.00,,CLR,0.00,VWS V14.01,2013-03-04 18:33:00,
2013-03-04 13:38:00,53.8,26.1,30.06,NW,309,2.0,4.0,34,0.00,,CLR,0.00,VWS V14.01,2013-03-04 18:38:00,
2013-03-04 13:43:00,54.2,25.7,30.06,NE,51,1.0,5.0,33,0.00,,CLR,0.00,VWS V14.01,2013-03-04 18:43:00,
2013-03-04 13:45:00,56.3,25.3,30.05,WNW,287,1.0,6.0,30,0.00,,SCT070,0.00,VWS V14.01,2013-03-04 18:45:00,
2013-03-04 13:53:00,53.9,25.5,30.05,East,101,1.0,6.0,33,0.00,,CLR,0.00,VWS V14.01,2013-03-04 18:53:00,
2013-03-04 14:00:00,53.5,25.1,30.05,NE,36,0.0,6.0,33,0.00,,CLR,0.00,VWS V14.01,2013-03-04 19:00:00,
2013-03-04 14:08:00,53.8,25.4,30.05,East,80,2.0,3.0,33,0.00,,CLR,0.00,VWS V14.01,2013-03-04 19:08:00,
2013-03-04 14:13:00,53.7,26.0,30.05,East,80,0.0,3.0,34,0.00,,CLR,0.00,VWS V14.01,2013-03-04 19:13:00,
2013-03-04 14:15:00,56.8,24.9,30.04,NNW,331,0.0,6.0,29,0.00,,SCT070,0.00,VWS V14.01,2013-03-04 19:15:00,
2013-03-04 14:23:00,54.6,26.8,30.04,NE,41,0.0,2.0,34,0.00,,CLR,0.00,VWS V14.01,2013-03-04 19:23:00,
2013-03-04 14:28:00,54.3,25.8,30.04,ESE,103,2.0,5.0,33,0.00,,CLR,0.00,VWS V14.01,2013-03-04 19:28:00,
2013-03-04 14:30:00,56.9,24.1,30.03,NNW,339,0.0,6.0,28,0.00,,SCT070,0.00,VWS V14.01,2013-03-04 19:30:00,
2013-03-04 14:38:00,55.8,24.9,30.04,SSW,213,0.0,3.0,30,0.00,,CLR,0.00,VWS V14.01,2013-03-04 19:38:00,
2013-03-04 14:43:00,56.2,25.2,30.04,WNW,296,5.0,5.0,30,0.00,,CLR,0.00,VWS V14.01,2013-03-04 19:43:00,
2013-03-04 14:45:00,56.7,24.8,30.03,North,10,0.0,6.0,29,0.00,,SCT070,0.00,VWS V14.01,2013-03-04 19:45:00,
2013-03-04 14:53:00,56.7,26.4,30.05,SSW,209,0.0,6.0,31,0.00,,CLR,0.00,VWS V14.01,2013-03-04 19:53:00,
2013-03-04 14:58:00,56.8,24.9,30.05,NW,314,1.0,6.0,29,0.00,,CLR,0.00,VWS V14.01,2013-03-04 19:58:00,
2013-03-04 15:00:00,57.1,24.3,30.03,WNW,302,0.0,5.0,28,0.00,,SCT070,0.00,VWS V14.01,2013-03-04 20:00:00,
2013-03-04 15:03:00,56.7,25.6,30.04,South,175,0.0,4.0,30,0.00,,CLR,0.00,VWS V14.01,2013-03-04 20:03:00,
2013-03-04 15:08:00,56.7,24.8,30.04,East,83,0.0,4.0,29,0.00,,CLR,0.00,VWS V14.01,2013-03-04 20:08:00,
2013-03-04 15:15:00,56.8,24.9,30.04,NNW,331,0.0,6.0,29,0.00,,CLR,0.00,VWS V14.01,2013-03-04 20:15:00,
2013-03-04 15:23:00,56.8,24.9,30.03,WNW,299,0.0,4.0,29,0.00,,CLR,0.00,VWS V14.01,2013-03-04 20:23:00,
2013-03-04 15:30:00,56.9,24.1,30.03,NNW,339,0.0,6.0,28,0.00,,CLR,0.00,VWS V14.01,2013-03-04 20:30:00,
2013-03-04 15:38:00,56.7,24.8,30.03,NW,314,0.0,6.0,29,0.00,,CLR,0.00,VWS V14.01,2013-03-04 20:38:00,
2013-03-04 15:45:00,56.7,24.8,30.03,North,10,0.0,6.0,29,0.00,,CLR,0.00,VWS V14.01,2013-03-04 20:45:00,
2013-03-04 15:53:00,56.9,24.1,30.03,SSE,159,0.0,5.0,28,0.00,,CLR,0.00,VWS V14.01,2013-03-04 20:53:00,
2013-03-04 16:00:00,57.1,24.3,30.03,WNW,302,0.0,5.0,28,0.00,,CLR,0.00,VWS V14.01,2013-03-04 21:00:00,
2013-03-04 16:08:00,57.1,25.2,30.03,SSW,205,1.0,5.0,29,0.00,,CLR,0.00,VWS V14.01,2013-03-04 21:08:00,
2013-03-04 16:13:00,57.1,24.3,30.03,SE,145,0.0,5.0,28,0.00,,CLR,0.00,VWS V14.01,2013-03-04 21:13:00,
2013-03-04 16:15:00,55.0,25.7,30.03,SSW,192,0.0,1.0,32,0.00,,SCT070,0.00,VWS V14.01,2013-03-04 21:15:00,
2013-03-04 16:18:00,57.3,27.0,30.03,SE,144,0.0,1.0,31,0.00,,CLR,0.00,VWS V14.01,2013-03-04 21:18:00,
2013-03-04 16:28:00,57.2,24.4,30.03,WNW,294,0.0,6.0,28,0.00,,CLR,0.00,VWS V14.01,2013-03-04 21:28:00,
2013-03-04 16:30:00,54.5,26.7,30.03,SSW,193,0.0,0.0,34,0.00,,SCT070,0.00,VWS V14.01,2013-03-04 21:30:00,
2013-03-04 16:38:00,57.4,24.6,30.03,WNW,287,0.0,2.0,28,0.00,,CLR,0.00,VWS V14.01,2013-03-04 21:38:00,
2013-03-04 16:43:00,57.1,24.3,30.03,SW,235,0.0,2.0,28,0.00,,CLR,0.00,VWS V14.01,2013-03-04 21:43:00,
2013-03-04 16:45:00,53.3,27.7,30.04,SSW,193,0.0,0.0,37,0.00,,SCT070,0.00,VWS V14.01,2013-03-04 21:45:00,
2013-03-04 16:53:00,56.4,23.7,30.03,ESE,109,0.0,4.0,28,0.00,,CLR,0.00,VWS V14.01,2013-03-04 21:53:00,
2013-03-04 16:57:00,56.1,25.1,30.03,ESE,109,0.0,4.0,30,0.00,,CLR,0.00,VWS V14.01,2013-03-04 21:57:00,
2013-03-04 17:00:00,52.0,29.0,30.04,SSW,193,0.0,0.0,41,0.00,,SCT070,0.00,VWS V14.01,2013-03-04 22:00:00,
2013-03-04 17:07:00,55.4,26.8,30.03,SSW,193,0.0,0.0,33,0.00,,CLR,0.00,VWS V14.01,2013-03-04 22:07:00,
2013-03-04 17:12:00,55.2,25.9,30.03,SSW,193,0.0,0.0,32,0.00,,CLR,0.00,VWS V14.01,2013-03-04 22:12:00,
2013-03-04 17:15:00,50.6,30.1,30.05,SSW,193,0.0,0.0,45,0.00,,SCT070,0.00,VWS V14.01,2013-03-04 22:15:00,
2013-03-04 17:22:00,54.8,24.8,30.03,SSW,193,0.0,0.0,31,0.00,,CLR,0.00,VWS V14.01,2013-03-04 22:22:00,
2013-03-04 17:30:00,54.5,26.7,30.03,SSW,193,0.0,0.0,34,0.00,,CLR,0.00,VWS V14.01,2013-03-04 22:30:00,
2013-03-04 17:37:00,54.0,27.7,30.04,SSW,192,0.0,0.0,36,0.00,,CLR,0.00,VWS V14.01,2013-03-04 22:37:00,
2013-03-04 17:45:00,53.3,27.7,30.04,SSW,193,0.0,0.0,37,0.00,,CLR,0.00,VWS V14.01,2013-03-04 22:45:00,
2013-03-04 17:52:00,52.6,28.4,30.04,SSW,193,0.0,0.0,39,0.00,,CLR,0.00,VWS V14.01,2013-03-04 22:52:00,
2013-03-04 18:00:00,52.0,29.0,30.04,SSW,193,0.0,0.0,41,0.00,,CLR,0.00,VWS V14.01,2013-03-04 23:00:00,
2013-03-04 18:07:00,51.4,30.2,30.04,SSW,193,0.0,0.0,44,0.00,,CLR,0.00,VWS V14.01,2013-03-04 23:07:00,
2013-03-04 18:15:00,50.6,30.1,30.05,SSW,193,0.0,0.0,45,0.00,,CLR,0.00,VWS V14.01,2013-03-04 23:15:00,
2013-03-04 18:22:00,50.0,30.0,30.05,SSW,193,0.0,0.0,46,0.00,,CLR,0.00,VWS V14.01,2013-03-04 23:22:00,
2013-03-04 18:30:00,49.2,30.4,30.05,SSW,192,0.0,0.0,48,0.00,,CLR,0.00,VWS V14.01,2013-03-04 23:30:00,
2013-03-04 18:37:00,48.5,30.2,30.05,SSW,192,0.0,0.0,49,0.00,,CLR,0.00,VWS V14.01,2013-03-04 23:37:00,
2013-03-04 18:45:00,47.7,30.0,30.06,SSW,192,0.0,0.0,50,0.00,,CLR,0.00,VWS V14.01,2013-03-04 23:45:00,
2013-03-04 18:52:00,47.1,30.9,30.06,SSW,193,0.0,0.0,53,0.00,,CLR,0.00,VWS V14.01,2013-03-04 23:52:00,
2013-03-04 18:57:00,46.7,31.0,30.06,SSW,193,0.0,0.0,54,0.00,,CLR,0.00,VWS V14.01,2013-03-04 23:57:00,
2013-03-04 19:00:00,43.2,30.7,30.07,SSW,192,0.0,0.0,61,0.00,,SCT070,0.00,VWS V14.01,2013-03-05 00:00:00,
2013-03-04 19:07:00,46.0,30.3,30.06,SSW,192,0.0,0.0,54,0.00,,CLR,0.00,VWS V14.01,2013-03-05 00:07:00,
2013-03-04 19:12:00,45.8,31.0,30.06,SSW,193,0.0,0.0,56,0.00,,CLR,0.00,VWS V14.01,2013-03-05 00:12:00,
2013-03-04 19:15:00,42.7,32.2,30.07,SSW,193,0.0,0.0,66,0.00,,SCT070,0.00,VWS V14.01,2013-03-05 00:15:00,
2013-03-04 19:22:00,45.1,30.8,30.06,SSW,193,0.0,0.0,57,0.00,,CLR,0.00,VWS V14.01,2013-03-05 00:22:00,
2013-03-04 19:27:00,44.8,30.9,30.06,SSW,193,0.0,0.0,58,0.00,,CLR,0.00,VWS V14.01,2013-03-05 00:27:00,
2013-03-04 19:30:00,42.1,30.8,30.08,SSW,193,0.0,0.0,64,0.00,,SCT070,0.00,VWS V14.01,2013-03-05 00:30:00,
2013-03-04 19:37:00,44.2,30.8,30.06,SSW,192,0.0,0.0,59,0.00,,CLR,0.00,VWS V14.01,2013-03-05 00:37:00,
2013-03-04 19:42:00,44.0,30.6,30.06,SSW,192,0.0,0.0,59,0.00,,CLR,0.00,VWS V14.01,2013-03-05 00:42:00,
2013-03-04 19:45:00,41.7,31.6,30.08,SSW,193,0.0,0.0,67,0.00,,SCT070,0.00,VWS V14.01,2013-03-05 00:45:00,
2013-03-04 19:52:00,43.5,31.0,30.07,SSW,192,0.0,0.0,61,0.00,,CLR,0.00,VWS V14.01,2013-03-05 00:52:00,
2013-03-04 19:57:00,43.3,30.8,30.07,SSW,193,0.0,0.0,61,0.00,,CLR,0.00,VWS V14.01,2013-03-05 00:57:00,
2013-03-04 20:00:00,41.8,29.4,30.07,SSW,193,0.0,0.0,61,0.00,,SCT070,0.00,VWS V14.01,2013-03-05 01:00:00,
2013-03-04 20:02:00,43.1,30.6,30.07,SSW,193,0.0,0.0,61,0.00,,CLR,0.00,VWS V14.01,2013-03-05 01:02:00,
2013-03-04 20:07:00,42.9,30.8,30.07,SSW,192,0.0,0.0,62,0.00,,CLR,0.00,VWS V14.01,2013-03-05 01:07:00,
2013-03-04 20:12:00,42.8,31.9,30.07,SSW,193,0.0,0.0,65,0.00,,CLR,0.00,VWS V14.01,2013-03-05 01:12:00,
2013-03-04 20:15:00,42.0,29.5,30.07,SSW,192,0.0,0.0,61,0.00,,SCT070,0.00,VWS V14.01,2013-03-05 01:15:00,
2013-03-04 20:22:00,42.4,31.5,30.07,SSW,193,0.0,0.0,65,0.00,,CLR,0.00,VWS V14.01,2013-03-05 01:22:00,
2013-03-04 20:27:00,42.2,30.9,30.07,SSW,193,0.0,0.0,64,0.00,,CLR,0.00,VWS V14.01,2013-03-05 01:27:00,
2013-03-04 20:30:00,41.6,29.6,30.07,SSW,193,0.0,0.0,62,0.00,,SCT070,0.00,VWS V14.01,2013-03-05 01:30:00,
2013-03-04 20:37:00,41.9,31.4,30.08,SSW,193,0.0,0.0,66,0.00,,CLR,0.00,VWS V14.01,2013-03-05 01:37:00,
2013-03-04 20:42:00,41.8,31.7,30.08,SSW,192,0.0,0.0,67,0.00,,CLR,0.00,VWS V14.01,2013-03-05 01:42:00,
2013-03-04 20:45:00,41.5,29.9,30.08,SSW,193,0.0,0.0,63,0.00,,SCT070,0.00,VWS V14.01,2013-03-05 01:45:00,
2013-03-04 20:52:00,41.6,29.6,30.07,SSW,192,0.0,0.0,62,0.00,,CLR,0.00,VWS V14.01,2013-03-05 01:52:00,
2013-03-04 20:57:00,41.7,29.7,30.07,SSW,193,0.0,0.0,62,0.00,,CLR,0.00,VWS V14.01,2013-03-05 01:57:00,
2013-03-04 21:00:00,41.3,30.1,30.08,SSW,193,0.0,0.0,64,0.00,,SCT070,0.00,VWS V14.01,2013-03-05 02:00:00,
2013-03-04 21:06:00,41.9,29.5,30.07,SSW,192,0.0,0.0,61,0.00,,CLR,0.00,VWS V14.01,2013-03-05 02:06:00,
2013-03-04 21:15:00,42.0,29.5,30.07,SSW,192,0.0,0.0,61,0.00,,CLR,0.00,VWS V14.01,2013-03-05 02:15:00,
2013-03-04 21:21:00,41.8,29.4,30.07,SSW,192,0.0,0.0,61,0.00,,CLR,0.00,VWS V14.01,2013-03-05 02:21:00,
2013-03-04 21:26:00,41.6,29.2,30.07,SSW,193,0.0,0.0,61,0.00,,CLR,0.00,VWS V14.01,2013-03-05 02:26:00,
2013-03-04 21:30:00,41.8,32.4,30.08,SSW,192,0.0,0.0,69,0.00,,SCT070,0.00,VWS V14.01,2013-03-05 02:30:00,
2013-03-04 21:36:00,41.5,29.5,30.07,SSW,193,0.0,0.0,62,0.00,,CLR,0.00,VWS V14.01,2013-03-05 02:36:00,
2013-03-04 21:41:00,41.5,29.5,30.08,SSW,193,0.0,0.0,62,0.00,,CLR,0.00,VWS V14.01,2013-03-05 02:41:00,
2013-03-04 21:45:00,42.1,32.3,30.07,SSW,192,0.0,0.0,68,0.00,,SCT070,0.00,VWS V14.01,2013-03-05 02:45:00,
2013-03-04 21:51:00,41.4,29.4,30.08,SSW,192,0.0,0.0,62,0.00,,CLR,0.00,VWS V14.01,2013-03-05 02:51:00,
2013-03-04 21:56:00,41.4,29.8,30.08,SSW,192,0.0,0.0,63,0.00,,CLR,0.00,VWS V14.01,2013-03-05 02:56:00,
2013-03-04 22:00:00,42.5,31.6,30.07,SSW,193,0.0,0.0,65,0.00,,SCT070,0.00,VWS V14.01,2013-03-05 03:00:00,
2013-03-04 22:06:00,41.4,29.8,30.08,SSW,192,0.0,0.0,63,0.00,,CLR,0.00,VWS V14.01,2013-03-05 03:06:00,
2013-03-04 22:11:00,41.5,29.5,30.08,SSW,193,0.0,0.0,62,0.00,,CLR,0.00,VWS V14.01,2013-03-05 03:11:00,
2013-03-04 22:15:00,42.9,32.7,30.07,SSW,193,0.0,0.0,67,0.00,,SCT070,0.00,VWS V14.01,2013-03-05 03:15:00,
2013-03-04 22:21:00,41.6,30.3,30.08,SSW,193,0.0,0.0,64,0.00,,CLR,0.00,VWS V14.01,2013-03-05 03:21:00,
2013-03-04 22:26:00,41.7,30.0,30.08,SSW,193,0.0,0.0,63,0.00,,CLR,0.00,VWS V14.01,2013-03-05 03:26:00,
2013-03-04 22:30:00,42.9,33.8,30.06,SSW,193,0.0,0.0,70,0.00,,SCT070,0.00,VWS V14.01,2013-03-05 03:30:00,
2013-03-04 22:31:00,41.8,32.4,30.07,SSW,192,0.0,0.0,69,0.00,,CLR,0.00,VWS V14.01,2013-03-05 03:31:00,
2013-03-04 22:36:00,41.8,31.3,30.07,SSW,193,0.0,0.0,66,0.00,,CLR,0.00,VWS V14.01,2013-03-05 03:36:00,
2013-03-04 22:41:00,42.0,31.5,30.07,SSW,193,0.0,0.0,66,0.00,,CLR,0.00,VWS V14.01,2013-03-05 03:41:00,
2013-03-04 22:45:00,42.8,34.8,30.05,SSW,192,0.0,0.0,73,0.00,,SCT070,0.00,VWS V14.01,2013-03-05 03:45:00,
2013-03-04 22:46:00,42.2,32.0,30.07,SSW,192,0.0,0.0,67,0.00,,CLR,0.00,VWS V14.01,2013-03-05 03:46:00,
2013-03-04 22:51:00,42.3,31.4,30.07,SSW,193,0.0,0.0,65,0.00,,CLR,0.00,VWS V14.01,2013-03-05 03:51:00,
2013-03-04 22:56:00,42.4,31.9,30.07,SSW,193,0.0,0.0,66,0.00,,CLR,0.00,VWS V14.01,2013-03-05 03:56:00,
2013-03-04 23:00:00,42.7,35.0,30.06,SSW,192,0.0,0.0,74,0.00,,SCT070,0.00,VWS V14.01,2013-03-05 04:00:00,
2013-03-04 23:01:00,42.6,32.0,30.06,SSW,193,0.0,0.0,66,0.00,,CLR,0.00,VWS V14.01,2013-03-05 04:01:00,
2013-03-04 23:11:00,42.8,32.6,30.07,SSW,193,0.0,0.0,67,0.00,,CLR,0.00,VWS V14.01,2013-03-05 04:11:00,
2013-03-04 23:15:00,42.3,35.3,30.06,SSW,193,0.0,0.0,76,0.00,,SCT070,0.00,VWS V14.01,2013-03-05 04:15:00,
2013-03-04 23:16:00,42.9,32.7,30.07,SSW,193,0.0,0.0,67,0.00,,CLR,0.00,VWS V14.01,2013-03-05 04:16:00,
2013-03-04 23:26:00,42.9,33.4,30.06,SSW,193,0.0,0.0,69,0.00,,CLR,0.00,VWS V14.01,2013-03-05 04:26:00,
2013-03-04 23:30:00,42.0,35.3,30.06,SSW,192,0.0,0.0,77,0.00,,SCT070,0.00,VWS V14.01,2013-03-05 04:30:00,
2013-03-04 23:31:00,42.9,34.2,30.06,SSW,192,0.0,0.0,71,0.00,,CLR,0.00,VWS V14.01,2013-03-05 04:31:00,
2013-03-04 23:41:00,42.8,34.4,30.05,SSW,192,0.0,0.0,72,0.00,,CLR,0.00,VWS V14.01,2013-03-05 04:41:00,
2013-03-04 23:45:00,41.9,35.9,30.06,SSW,193,0.0,0.0,79,0.00,,SCT070,0.00,VWS V14.01,2013-03-05 04:45:00,
2013-03-04 23:46:00,42.8,34.8,30.06,SSW,193,0.0,0.0,73,0.00,,CLR,0.00,VWS V14.01,2013-03-05 04:46:00,
2013-03-04 23:51:00,42.8,34.8,30.06,SSW,193,0.0,0.0,73,0.00,,CLR,0.00,VWS V14.01,2013-03-05 04:51:00,